When you browse on this site, cookies collect data to enhance your experience and personalize the content and advertising you see.
Visit our Privacy Policy to learn more. By continuing to use the site, you agree to this use of cookies and data.
  • In France
  • List of Countries
  • For 7 days
  • Water Temperature
  • Weather Map
  • Weather Widgets
  • user-avatar
    Login

    Hourly Weather Newport

    Today, 10 December, Tuesday

    Time Temperature Precipitation Wind Pressure Humidity
    00:00 +4°C° 0 mm 2 mps 765 mmHg 83%
    01:00 +4°C° 0 mm 3 mps 765 mmHg 82%
    02:00 +4°C° 0 mm 4 mps 764 mmHg 81%
    03:00 +5°C° 0 mm 5 mps 764 mmHg 80%
    04:00 +5°C° 0 mm 7 mps 763 mmHg 81%
    05:00 +5°C° 0 mm 8 mps 763 mmHg 81%
    06:00 +6°C° 0 mm 9 mps 762 mmHg 82%
    07:00 +7°C° 0 mm 10 mps 761 mmHg 82%
    08:00 +7°C° 0 mm 11 mps 760 mmHg 83%
    09:00 +7°C° 0 mm 12 mps 759 mmHg 84%
    10:00 +7°C° 0.5 mm 12 mps 758 mmHg 85%
    11:00 +8°C° 0.5 mm 13 mps 758 mmHg 87%
    12:00 +8°C° 0.5 mm 14 mps 757 mmHg 88%
    13:00 +8°C° 0.4 mm 14 mps 755 mmHg 88%
    14:00 +9°C° 0.4 mm 15 mps 754 mmHg 89%
    15:00 +9°C° 0.4 mm 15 mps 752 mmHg 89%
    16:00 +9°C° 0.2 mm 15 mps 751 mmHg 89%
    17:00 +10°C° 0.2 mm 15 mps 750 mmHg 89%
    18:00 +10°C° 0.2 mm 16 mps 750 mmHg 89%
    19:00 +8°C° 1 mm 14 mps 750 mmHg 88%
    20:00 +7°C° 1 mm 12 mps 750 mmHg 87%
    21:00 +4°C° 1 mm 11 mps 751 mmHg 86%
    22:00 +5°C° 0.2 mm 10 mps 751 mmHg 84%
    23:00 +5°C° 0.2 mm 9 mps 752 mmHg 82%

    Tomorrow, 11 December, Wednesday

    Time Temperature Precipitation Wind Pressure Humidity
    00:00 +5°C° 0.2 mm 8 mps 753 mmHg 80%
    01:00 +4°C° 0 mm 7 mps 753 mmHg 80%
    02:00 +4°C° 0 mm 7 mps 753 mmHg 81%
    03:00 +4°C° 0 mm 7 mps 753 mmHg 82%
    04:00 +3°C° 0 mm 6 mps 753 mmHg 82%
    05:00 +3°C° 0 mm 6 mps 752 mmHg 82%
    06:00 +3°C° 0 mm 6 mps 752 mmHg 82%
    07:00 +4°C° 0.2 mm 6 mps 752 mmHg 81%
    08:00 +4°C° 0.2 mm 7 mps 752 mmHg 80%
    09:00 +4°C° 0.2 mm 7 mps 751 mmHg 80%
    10:00 +5°C° 0.2 mm 8 mps 750 mmHg 77%
    11:00 +6°C° 0.2 mm 9 mps 750 mmHg 74%
    12:00 +7°C° 0.2 mm 10 mps 749 mmHg 72%
    13:00 +6°C° 0.3 mm 9 mps 748 mmHg 73%
    14:00 +5°C° 0.3 mm 9 mps 748 mmHg 75%
    15:00 +2°C° 0.3 mm 8 mps 748 mmHg 77%
    16:00 +2°C° 0 mm 8 mps 748 mmHg 77%
    17:00 +2°C° 0 mm 8 mps 748 mmHg 78%
    18:00 +1°C° 0 mm 8 mps 749 mmHg 78%
    19:00 +1°C° 0 mm 8 mps 749 mmHg 79%
    20:00 +2°C° 0 mm 7 mps 750 mmHg 80%
    21:00 +2°C° 0 mm 7 mps 750 mmHg 81%
    22:00 0°C° 0 mm 7 mps 751 mmHg 82%
    23:00 0°C° 0 mm 7 mps 751 mmHg 83%

    Day after tomorrow, 12 December, Thursday

    Time Temperature Precipitation Wind Pressure Humidity
    00:00 +1°C° 0 mm 6 mps 751 mmHg 84%
    01:00 +1°C° 0 mm 6 mps 751 mmHg 83%
    02:00 +1°C° 0 mm 6 mps 750 mmHg 82%
    03:00 +1°C° 0 mm 6 mps 750 mmHg 81%
    04:00 +1°C° 0 mm 6 mps 750 mmHg 79%
    05:00 +2°C° 0 mm 5 mps 749 mmHg 77%
    06:00 +2°C° 0 mm 5 mps 749 mmHg 76%
    07:00 +3°C° 0 mm 6 mps 747 mmHg 78%
    08:00 +4°C° 0 mm 8 mps 746 mmHg 81%
    09:00 +5°C° 0 mm 9 mps 745 mmHg 83%
    10:00 +6°C° 1.7 mm 11 mps 743 mmHg 85%
    11:00 +5°C° 1.7 mm 13 mps 741 mmHg 88%
    12:00 +6°C° 1.7 mm 15 mps 738 mmHg 90%
    13:00 +6°C° 3.7 mm 15 mps 736 mmHg 90%
    14:00 +8°C° 3.7 mm 14 mps 733 mmHg 90%
    15:00 +8°C° 3.7 mm 13 mps 731 mmHg 90%
    16:00 +8°C° 0.6 mm 14 mps 730 mmHg 85%
    17:00 +6°C° 0.6 mm 15 mps 729 mmHg 81%
    18:00 +5°C° 0.6 mm 16 mps 728 mmHg 76%
    19:00 +4°C° 0.2 mm 16 mps 728 mmHg 77%
    20:00 +2°C° 0.2 mm 15 mps 729 mmHg 79%
    21:00 +1°C° 0.2 mm 15 mps 729 mmHg 80%
    22:00 +1°C° 0.1 mm 15 mps 728 mmHg 78%
    23:00 +1°C° 0.1 mm 14 mps 728 mmHg 76%

    13 December, Friday

    Time Temperature Precipitation Wind Pressure Humidity
    00:00 +1°C° 0.1 mm 14 mps 728 mmHg 74%
    01:00 +1°C° 0 mm 15 mps 727 mmHg 74%
    02:00 +1°C° 0 mm 15 mps 726 mmHg 75%
    03:00 +1°C° 0 mm 16 mps 726 mmHg 75%
    04:00 +2°C° 0 mm 17 mps 726 mmHg 77%
    05:00 +2°C° 0 mm 17 mps 726 mmHg 78%
    06:00 +3°C° 0 mm 18 mps 726 mmHg 80%
    07:00 +3°C° 0.3 mm 17 mps 727 mmHg 81%
    08:00 +4°C° 0.3 mm 16 mps 728 mmHg 81%
    09:00 +5°C° 0.3 mm 16 mps 729 mmHg 82%
    10:00 +5°C° 0.1 mm 16 mps 730 mmHg 78%
    11:00 +5°C° 0.1 mm 15 mps 731 mmHg 74%
    12:00 +5°C° 0.1 mm 15 mps 732 mmHg 70%
    13:00 +5°C° 0 mm 15 mps 733 mmHg 72%
    14:00 +5°C° 0 mm 15 mps 734 mmHg 73%
    15:00 +4°C° 0 mm 15 mps 735 mmHg 74%
    16:00 +4°C° 0 mm 14 mps 735 mmHg 74%
    17:00 +3°C° 0 mm 13 mps 736 mmHg 75%
    18:00 +3°C° 0 mm 13 mps 736 mmHg 75%
    19:00 +3°C° 0 mm 12 mps 736 mmHg 76%
    20:00 +3°C° 0 mm 10 mps 736 mmHg 76%
    21:00 +3°C° 0 mm 9 mps 736 mmHg 77%
    22:00 +4°C° 0.5 mm 8 mps 735 mmHg 82%
    23:00 +4°C° 0.5 mm 7 mps 734 mmHg 87%

    14 December, Saturday

    Time Temperature Precipitation Wind Pressure Humidity
    00:00 +4°C° 0.5 mm 6 mps 733 mmHg 92%
    01:00 +4°C° 0.3 mm 8 mps 733 mmHg 90%
    02:00 +3°C° 0.3 mm 10 mps 734 mmHg 88%
    03:00 +3°C° 0.3 mm 12 mps 735 mmHg 86%
    04:00 +3°C° 0 mm 12 mps 735 mmHg 85%
    05:00 +3°C° 0 mm 11 mps 736 mmHg 83%
    06:00 +2°C° 0 mm 11 mps 737 mmHg 82%
    07:00 +2°C° 0.4 mm 11 mps 738 mmHg 80%
    08:00 +3°C° 0.4 mm 12 mps 738 mmHg 77%
    09:00 +3°C° 0.4 mm 12 mps 739 mmHg 75%
    10:00 +3°C° 0.2 mm 12 mps 740 mmHg 77%
    11:00 +3°C° 0.2 mm 12 mps 740 mmHg 78%
    12:00 +3°C° 0.2 mm 12 mps 741 mmHg 80%
    13:00 +3°C° 0.1 mm 12 mps 742 mmHg 76%
    14:00 +3°C° 0.1 mm 12 mps 742 mmHg 73%
    15:00 +3°C° 0.1 mm 12 mps 743 mmHg 69%
    16:00 +2°C° 0 mm 11 mps 744 mmHg 69%
    17:00 +2°C° 0 mm 10 mps 744 mmHg 70%
    18:00 +1°C° 0 mm 9 mps 745 mmHg 70%
    19:00 +1°C° 0 mm 8 mps 745 mmHg 70%
    20:00 +2°C° 0 mm 7 mps 745 mmHg 71%
    21:00 +2°C° 0 mm 6 mps 746 mmHg 71%
    22:00 +4°C° 0 mm 8 mps 745 mmHg 73%
    23:00 +5°C° 0 mm 10 mps 744 mmHg 75%

    15 December, Sunday

    Time Temperature Precipitation Wind Pressure Humidity
    00:00 +5°C° 0 mm 12 mps 743 mmHg 76%
    01:00 +5°C° 1.2 mm 12 mps 742 mmHg 78%
    02:00 +6°C° 1.2 mm 11 mps 741 mmHg 80%
    03:00 +6°C° 1.2 mm 11 mps 741 mmHg 82%
    04:00 +5°C° 0.1 mm 10 mps 741 mmHg 80%
    05:00 +5°C° 0.1 mm 10 mps 742 mmHg 79%
    06:00 +3°C° 0.1 mm 9 mps 742 mmHg 77%
    07:00 +4°C° 0.1 mm 8 mps 743 mmHg 76%
    08:00 +4°C° 0.1 mm 8 mps 744 mmHg 76%
    09:00 +4°C° 0.1 mm 7 mps 744 mmHg 75%
    10:00 +5°C° 0.1 mm 8 mps 744 mmHg 73%
    11:00 +6°C° 0.1 mm 8 mps 744 mmHg 72%
    12:00 +6°C° 0.1 mm 8 mps 745 mmHg 70%
    13:00 +6°C° 0.1 mm 9 mps 745 mmHg 71%
    14:00 +6°C° 0.1 mm 9 mps 744 mmHg 72%
    15:00 +6°C° 0.1 mm 9 mps 744 mmHg 73%
    16:00 +6°C° 0 mm 8 mps 744 mmHg 74%
    17:00 +6°C° 0 mm 8 mps 745 mmHg 75%
    18:00 +5°C° 0 mm 7 mps 745 mmHg 77%
    19:00 +5°C° 0.2 mm 8 mps 745 mmHg 78%
    20:00 +5°C° 0.2 mm 8 mps 745 mmHg 79%
    21:00 +6°C° 0.2 mm 8 mps 745 mmHg 80%
    22:00 +6°C° 0.3 mm 8 mps 745 mmHg 81%
    23:00 +6°C° 0.3 mm 8 mps 745 mmHg 81%
    Show more